TimeCDT,TemperatureF,Dew PointF,Humidity,Sea Level PressureIn,VisibilityMPH,Wind Direction,Wind SpeedMPH,Gust SpeedMPH,PrecipitationIn,Events,Conditions,WindDirDegrees,DateUTC
12:15 AM,46.4,35.6,66,30.33,10.0,ESE,5.8,-,N/A,,Clear,120,2013-04-25 05:15:00
12:35 AM,42.8,37.4,81,30.33,10.0,South,5.8,-,N/A,,Clear,170,2013-04-25 05:35:00
12:55 AM,44.6,35.6,71,30.32,10.0,South,6.9,-,N/A,,Clear,170,2013-04-25 05:55:00
1:15 AM,44.6,35.6,71,30.32,10.0,South,5.8,-,N/A,,Clear,180,2013-04-25 06:15:00
1:35 AM,44.6,37.4,76,30.32,10.0,South,5.8,-,N/A,,Clear,190,2013-04-25 06:35:00
1:55 AM,42.8,35.6,76,30.32,10.0,South,4.6,-,N/A,,Clear,180,2013-04-25 06:55:00
2:15 AM,42.8,35.6,76,30.32,10.0,SSW,5.8,-,N/A,,Clear,200,2013-04-25 07:15:00
2:35 AM,42.8,35.6,76,30.31,10.0,SSW,5.8,-,N/A,,Clear,210,2013-04-25 07:35:00
2:55 AM,41.0,35.6,81,30.31,10.0,SSW,5.8,-,N/A,,Clear,210,2013-04-25 07:55:00
3:15 AM,41.0,35.6,81,30.31,10.0,SSW,5.8,-,N/A,,Clear,210,2013-04-25 08:15:00
3:35 AM,42.8,35.6,76,30.31,10.0,SSW,5.8,-,N/A,,Clear,210,2013-04-25 08:35:00
3:55 AM,41.0,35.6,81,30.31,10.0,SSW,3.5,-,N/A,,Clear,210,2013-04-25 08:55:00
4:15 AM,41.0,35.6,81,30.31,10.0,SW,6.9,-,N/A,,Clear,220,2013-04-25 09:15:00
4:35 AM,41.0,35.6,81,30.31,10.0,SW,4.6,-,N/A,,Clear,220,2013-04-25 09:35:00
4:55 AM,42.8,35.6,76,30.31,10.0,Calm,Calm,-,N/A,,Clear,0,2013-04-25 09:55:00
5:15 AM,41.0,35.6,81,30.32,10.0,Calm,Calm,-,N/A,,Clear,0,2013-04-25 10:15:00
5:35 AM,41.0,35.6,81,30.32,10.0,SW,3.5,-,N/A,,Clear,230,2013-04-25 10:35:00
5:55 AM,41.0,35.6,81,30.32,10.0,SW,4.6,-,N/A,,Clear,230,2013-04-25 10:55:00
6:15 AM,41.0,35.6,81,30.33,10.0,SW,4.6,-,N/A,,Clear,220,2013-04-25 11:15:00
6:35 AM,41.0,33.8,76,30.33,10.0,SW,4.6,-,N/A,,Clear,220,2013-04-25 11:35:00
6:55 AM,41.0,35.6,81,30.33,10.0,SSW,3.5,-,N/A,,Clear,210,2013-04-25 11:55:00
7:15 AM,41.0,35.6,81,30.33,10.0,SSW,4.6,-,N/A,,Clear,210,2013-04-25 12:15:00
7:35 AM,41.0,37.4,87,30.34,10.0,SW,4.6,-,N/A,,Clear,220,2013-04-25 12:35:00
7:55 AM,44.6,37.4,76,30.34,10.0,SW,3.5,-,N/A,,Clear,220,2013-04-25 12:55:00
8:15 AM,46.4,37.4,71,30.35,10.0,SW,4.6,-,N/A,,Clear,220,2013-04-25 13:15:00
8:35 AM,50.0,39.2,66,30.35,10.0,SSW,5.8,-,N/A,,Clear,210,2013-04-25 13:35:00
8:55 AM,51.8,37.4,58,30.35,10.0,Calm,Calm,-,N/A,,Clear,0,2013-04-25 13:55:00
9:15 AM,53.6,39.2,58,30.36,10.0,South,3.5,-,N/A,,Clear,190,2013-04-25 14:15:00
9:35 AM,53.6,37.4,54,30.35,10.0,South,4.6,-,N/A,,Clear,190,2013-04-25 14:35:00
9:55 AM,57.2,39.2,51,30.35,10.0,South,3.5,-,N/A,,Clear,180,2013-04-25 14:55:00
10:15 AM,59.0,39.2,48,30.35,10.0,Calm,Calm,-,N/A,,Clear,0,2013-04-25 15:15:00
10:55 AM,60.8,41.0,48,30.34,10.0,Calm,Calm,-,N/A,,Clear,0,2013-04-25 15:55:00
11:15 AM,62.6,37.4,39,30.34,10.0,Calm,Calm,-,N/A,,Clear,0,2013-04-25 16:15:00
11:55 AM,64.4,39.2,40,30.33,10.0,ESE,4.6,-,N/A,,Clear,120,2013-04-25 16:55:00
12:15 PM,64.4,39.2,40,30.32,10.0,South,3.5,-,N/A,,Clear,170,2013-04-25 17:15:00
12:35 PM,68.0,37.4,33,30.32,10.0,South,4.6,-,N/A,,Clear,180,2013-04-25 17:35:00
12:55 PM,68.0,39.2,35,30.31,10.0,South,5.8,-,N/A,,Clear,170,2013-04-25 17:55:00
1:15 PM,69.8,37.4,31,30.30,10.0,ESE,9.2,-,N/A,,Clear,120,2013-04-25 18:15:00
1:35 PM,69.8,37.4,31,30.29,10.0,SSE,9.2,-,N/A,,Clear,150,2013-04-25 18:35:00
1:55 PM,69.8,37.4,31,30.28,10.0,SSE,8.1,-,N/A,,Clear,150,2013-04-25 18:55:00
2:15 PM,71.6,41.0,33,30.28,10.0,SE,9.2,-,N/A,,Clear,130,2013-04-25 19:15:00
2:35 PM,71.6,39.2,31,30.27,10.0,SSE,6.9,-,N/A,,Clear,160,2013-04-25 19:35:00
2:55 PM,73.4,41.0,31,30.27,10.0,SSE,11.5,16.1,N/A,,Clear,150,2013-04-25 19:55:00
3:15 PM,73.4,39.2,29,30.27,10.0,South,12.7,17.3,N/A,,Clear,180,2013-04-25 20:15:00
3:35 PM,71.6,35.6,27,30.25,10.0,South,10.4,-,N/A,,Clear,170,2013-04-25 20:35:00
3:55 PM,71.6,37.4,29,30.23,10.0,South,10.4,-,N/A,,Clear,170,2013-04-25 20:55:00
4:15 PM,71.6,39.2,31,30.21,10.0,SSE,12.7,17.3,N/A,,Clear,150,2013-04-25 21:15:00
4:35 PM,71.6,37.4,29,30.20,10.0,SSE,11.5,-,N/A,,Clear,150,2013-04-25 21:35:00
4:55 PM,71.6,37.4,29,30.21,10.0,South,6.9,16.1,N/A,,Clear,170,2013-04-25 21:55:00
5:15 PM,69.8,41.0,35,30.21,10.0,SSE,6.9,-,N/A,,Clear,150,2013-04-25 22:15:00
5:35 PM,69.8,37.4,31,30.20,7.0,SE,8.1,-,N/A,,Clear,140,2013-04-25 22:35:00
5:55 PM,69.8,37.4,31,30.19,10.0,SE,9.2,-,N/A,,Clear,130,2013-04-25 22:55:00
6:15 PM,69.8,37.4,31,30.19,10.0,SE,9.2,-,N/A,,Clear,130,2013-04-25 23:15:00
6:35 PM,71.6,39.2,31,30.19,10.0,SSE,6.9,-,N/A,,Clear,160,2013-04-25 23:35:00
6:55 PM,69.8,39.2,33,30.19,10.0,SE,9.2,-,N/A,,Clear,140,2013-04-25 23:55:00
7:15 PM,69.8,37.4,31,30.18,10.0,SE,8.1,-,N/A,,Clear,140,2013-04-26 00:15:00
7:35 PM,68.0,37.4,33,30.17,10.0,SE,6.9,-,N/A,,Clear,130,2013-04-26 00:35:00
7:55 PM,66.2,39.2,37,30.17,10.0,North,-9999.0,-,N/A,,Clear,0,2013-04-26 00:55:00
8:15 PM,64.4,39.2,40,30.18,10.0,SSE,4.6,-,N/A,,Scattered Clouds,150,2013-04-26 01:15:00
8:55 PM,62.6,41.0,45,30.17,10.0,SE,5.8,-,N/A,,Clear,140,2013-04-26 01:55:00
9:15 PM,62.6,41.0,45,30.17,10.0,SE,8.1,-,N/A,,Mostly Cloudy,140,2013-04-26 02:15:00
9:35 PM,62.6,41.0,45,30.15,10.0,SE,9.2,-,N/A,,Scattered Clouds,140,2013-04-26 02:35:00
9:55 PM,60.8,42.8,52,30.18,10.0,SE,3.5,-,N/A,,Mostly Cloudy,130,2013-04-26 02:55:00
10:15 PM,62.6,42.8,48,30.18,10.0,ESE,4.6,-,N/A,,Overcast,120,2013-04-26 03:15:00
10:35 PM,60.8,44.6,55,30.19,10.0,SE,5.8,-,N/A,,Overcast,130,2013-04-26 03:35:00
10:55 PM,60.8,44.6,55,30.20,10.0,SE,4.6,-,N/A,,Overcast,140,2013-04-26 03:55:00
11:15 PM,60.8,44.6,55,30.19,10.0,SSE,4.6,-,N/A,,Overcast,160,2013-04-26 04:15:00
11:35 PM,60.8,44.6,55,30.19,10.0,SSE,5.8,-,N/A,,Overcast,150,2013-04-26 04:35:00
11:55 PM,62.6,44.6,52,30.18,10.0,SSE,10.4,-,N/A,,Overcast,160,2013-04-26 04:55:00